Location: ČR
(50.0000°N, 15.0000°E)
Time: 07:33:46
(UTC+02:00)

A-11 Canister half - Pass Details

Date: 24 March 2026
Orbit: 1514 x 1685 km, 47.2° (Epoch: 18 April)

Event Time Altitude Azimuth Distance (km) Brightness Sun altitude
Rises 10:30:25 0° 202° (SSW) 4,749 12.0 37.4°
Reaches altitude 10° 10:33:55 10° 192° (SSW) 3,793 11.8 37.7°
Maximum altitude 10:41:55 31° 136° (SE) 2,587 12.2 38.3°
Drops below altitude 10° 10:50:09 10° 80° (E) 3,913 11.4 38.9°
Sets 10:53:48 0° 71° (ENE) 4,921 11.7 39.1°
